星链-34692(STARLINK-34692)

导读

STARLINK-34692是美国于2025年9月25日发射的星链卫星,隶属于SpaceX公司打造的星链星座项目。星链计划旨在构建全球卫星互联网星座,为全球偏远地区、海洋航行等场景提供低成本、广覆盖的宽带互联网接入服务。该卫星入轨后,将进一步扩充星链星座规模,提升全球网络服务覆盖能力与稳定性。

Basic Information
目录编号:
65759
目录名称:
STARLINK-34692
国际标识:
2025-216AB
轨道中心:
EARTH
卫星名称:
星链-34692
卫星全名:
星链-34692(STARLINK-34692)
卫星状态:
在轨 (已飞行345 天)
发射日期:
2025-09-25 UTC
国别 :
美国 (US)
星等 :
--
Orbit Information
数据来源 国际轨道数据
星历时间: 2026-09-05T15:24:07+0800
9小时前
查看轨道信息
半长轴: 6840.845km
偏心率: 0.0001604
轨道倾角: 53.158°
近地点辐角 55.903°
升交点赤经 216.480°
平近点角 304.212°
近地点: 461.61km
远地点: 463.806km
周期: 93.848分钟
每日圈数: 15.343986
Detailed Information
固有亮度:
5
最大亮度:
2.5
卫星平台:
Starlink V1.0
覆盖范围:
全球
运营商:
太空探索技术公司
运营商所在国:
美国
制造商(研发单位):
太空探索技术公司
制造商所在国:
美国
使用方式:
暂无
Satellite Introduction
Starlink 计划是 SpaceX 推出的全球卫星互联网项目,通过发射低轨道卫星,为全球尤其是偏远地区提供高速、低延迟的互联网服务。自 2019 年起,Starlink 已部署数千颗卫星,旨在缩小全球数字鸿沟,推动互联网普及。该项目还为军事、航空等行业提供通信支持,带来广泛经济效益。
2D Orbit Map
3D Orbit Map
Orbit Altitude Analysis Chart
Orbit Inclination Analysis Chart
Orbit Comprehensive Analysis Chart
View Comprehensive Chart
Conjunction Data List
Event ID Objects TCA Miss Dist (km) Collision Risk Probability Collision Risk Index (CRI) Action
CDM_260906-010604-302406-575922
2026-09-06T
01:06:50+0000
1.963 km
极远距离
2.901223E-6 低风险 0.44
CDM_260905-224604-302406-575922
2026-09-05T
22:46:02+0000
2.186 km
极远距离
2.228669E-6 低风险 0.42
CDM_260907-003006-435506-575921
2026-09-07T
00:30:09+0000
2.475 km
极远距离
1.375381E-6 低风险 0.38
CDM_260906-124905-284406-575921
2026-09-06T
12:49:53+0000
2.892 km
极远距离
9.867702E-7 极低风险 0.35